Time,TemperatureF,DewpointF,PressureIn,WindDirection,WindDirectionDegrees,WindSpeedMPH,WindSpeedGustMPH,Humidity,HourlyPrecipIn,Conditions,Clouds,dailyrainin,SoftwareType,DateUTC
2013-07-18 00:02:00,78.0,73.0,30.22,South,191,0.0,0.0,86,0.00,,,0.00,,2013-07-18 05:02:00,
2013-07-18 00:11:00,78.0,73.0,30.22,South,191,0.0,0.0,86,0.00,,,0.00,,2013-07-18 05:11:00,
2013-07-18 00:22:00,78.0,74.0,30.22,South,191,0.0,1.0,87,0.00,,,0.00,,2013-07-18 05:22:00,
2013-07-18 00:32:00,78.0,74.0,30.22,South,191,0.0,1.0,87,0.00,,,0.00,,2013-07-18 05:32:00,
2013-07-18 00:42:00,78.0,74.0,30.22,South,191,0.0,1.0,87,0.00,,,0.00,,2013-07-18 05:42:00,
2013-07-18 00:52:00,77.0,73.0,30.22,South,191,0.0,0.0,88,0.00,,,0.00,,2013-07-18 05:52:00,
2013-07-18 01:01:00,77.0,73.0,30.22,South,191,0.0,0.0,88,0.00,,,0.00,,2013-07-18 06:01:00,
2013-07-18 01:12:00,77.0,73.0,30.22,South,191,0.0,0.0,88,0.00,,,0.00,,2013-07-18 06:12:00,
2013-07-18 01:22:00,77.0,74.0,30.22,South,191,0.0,0.0,89,0.00,,,0.00,,2013-07-18 06:22:00,
2013-07-18 01:32:00,77.0,74.0,30.22,South,191,0.0,0.0,89,0.00,,,0.00,,2013-07-18 06:32:00,
2013-07-18 01:43:00,77.0,74.0,30.22,South,191,0.0,0.0,89,0.00,,,0.00,,2013-07-18 06:43:00,
2013-07-18 01:52:00,76.0,73.0,30.22,South,191,0.0,0.0,90,0.00,,,0.00,,2013-07-18 06:52:00,
2013-07-18 02:01:00,76.0,73.0,30.22,South,191,0.0,0.0,90,0.00,,,0.00,,2013-07-18 07:01:00,
2013-07-18 02:12:00,76.0,73.0,30.22,South,191,0.0,0.0,90,0.00,,,0.00,,2013-07-18 07:12:00,
2013-07-18 02:22:00,76.0,73.0,30.22,South,191,0.0,0.0,90,0.00,,,0.00,,2013-07-18 07:22:00,
2013-07-18 02:32:00,76.0,73.0,30.22,South,191,0.0,0.0,90,0.00,,,0.00,,2013-07-18 07:32:00,
2013-07-18 02:42:00,76.0,73.0,30.22,South,191,0.0,0.0,90,0.00,,,0.00,,2013-07-18 07:42:00,
2013-07-18 02:52:00,75.0,72.0,30.21,South,191,0.0,0.0,90,0.00,,,0.00,,2013-07-18 07:52:00,
2013-07-18 03:01:00,75.0,72.0,30.21,South,191,0.0,0.0,90,0.00,,,0.00,,2013-07-18 08:01:00,
2013-07-18 03:11:00,75.0,72.0,30.21,South,191,0.0,0.0,90,0.00,,,0.00,,2013-07-18 08:11:00,
2013-07-18 03:21:00,75.0,72.0,30.21,South,191,0.0,0.0,91,0.00,,,0.00,,2013-07-18 08:21:00,
2013-07-18 03:32:00,75.0,72.0,30.21,South,191,0.0,0.0,91,0.00,,,0.00,,2013-07-18 08:32:00,
2013-07-18 03:42:00,75.0,72.0,30.21,South,191,0.0,0.0,91,0.00,,,0.00,,2013-07-18 08:42:00,
2013-07-18 03:52:00,75.0,72.0,30.20,South,191,0.0,0.0,91,0.00,,,0.00,,2013-07-18 08:52:00,
2013-07-18 04:01:00,75.0,72.0,30.20,South,191,0.0,0.0,91,0.00,,,0.00,,2013-07-18 09:01:00,
2013-07-18 04:11:00,75.0,72.0,30.20,South,191,0.0,0.0,91,0.00,,,0.00,,2013-07-18 09:11:00,
2013-07-18 04:21:00,74.0,71.0,30.21,South,191,0.0,0.0,91,0.00,,,0.00,,2013-07-18 09:21:00,
2013-07-18 04:32:00,74.0,71.0,30.21,South,191,0.0,0.0,91,0.00,,,0.00,,2013-07-18 09:32:00,
2013-07-18 04:42:00,74.0,71.0,30.21,South,191,0.0,0.0,91,0.00,,,0.00,,2013-07-18 09:42:00,
2013-07-18 04:51:00,74.0,71.0,30.20,South,191,0.0,0.0,91,0.00,,,0.00,,2013-07-18 09:51:00,
2013-07-18 05:01:00,74.0,71.0,30.20,South,191,0.0,0.0,91,0.00,,,0.00,,2013-07-18 10:01:00,
2013-07-18 05:11:00,74.0,71.0,30.20,South,191,0.0,0.0,91,0.00,,,0.00,,2013-07-18 10:11:00,
2013-07-18 05:22:00,74.0,72.0,30.20,South,191,0.0,0.0,92,0.00,,,0.00,,2013-07-18 10:22:00,
2013-07-18 05:32:00,74.0,72.0,30.20,South,191,0.0,0.0,92,0.00,,,0.00,,2013-07-18 10:32:00,
2013-07-18 05:43:00,74.0,72.0,30.20,South,191,0.0,0.0,92,0.00,,,0.00,,2013-07-18 10:43:00,
2013-07-18 05:52:00,73.0,71.0,30.20,South,191,0.0,0.0,92,0.00,,,0.00,,2013-07-18 10:52:00,
2013-07-18 06:01:00,73.0,71.0,30.20,South,191,0.0,0.0,92,0.00,,,0.00,,2013-07-18 11:01:00,
2013-07-18 06:11:00,73.0,71.0,30.20,South,191,0.0,0.0,92,0.00,,,0.00,,2013-07-18 11:11:00,
2013-07-18 06:22:00,74.0,72.0,30.20,South,191,0.0,0.0,92,0.00,,,0.00,,2013-07-18 11:22:00,
2013-07-18 06:32:00,74.0,72.0,30.20,South,191,0.0,0.0,92,0.00,,,0.00,,2013-07-18 11:32:00,
2013-07-18 06:43:00,74.0,72.0,30.20,South,191,0.0,0.0,92,0.00,,,0.00,,2013-07-18 11:43:00,
2013-07-18 06:52:00,74.0,72.0,30.20,South,191,0.0,0.0,93,0.00,,,0.00,,2013-07-18 11:52:00,
2013-07-18 07:02:00,74.0,72.0,30.20,South,191,0.0,0.0,93,0.00,,,0.00,,2013-07-18 12:02:00,
2013-07-18 07:11:00,74.0,72.0,30.20,South,191,0.0,0.0,93,0.00,,,0.00,,2013-07-18 12:11:00,
2013-07-18 07:22:00,74.0,72.0,30.20,South,191,0.0,0.0,93,0.00,,,0.00,,2013-07-18 12:22:00,
2013-07-18 07:32:00,74.0,72.0,30.20,South,191,0.0,0.0,93,0.00,,,0.00,,2013-07-18 12:32:00,
2013-07-18 07:52:00,77.0,73.0,30.20,South,191,0.0,0.0,87,0.00,,,0.00,,2013-07-18 12:52:00,
2013-07-18 08:01:00,77.0,73.0,30.20,South,191,0.0,0.0,87,0.00,,,0.00,,2013-07-18 13:01:00,
2013-07-18 08:11:00,77.0,73.0,30.20,South,191,0.0,0.0,87,0.00,,,0.00,,2013-07-18 13:11:00,
2013-07-18 08:22:00,80.0,74.0,30.20,South,191,0.0,1.0,82,0.00,,,0.00,,2013-07-18 13:22:00,
2013-07-18 08:32:00,80.0,74.0,30.20,South,191,0.0,1.0,82,0.00,,,0.00,,2013-07-18 13:32:00,
2013-07-18 08:43:00,80.0,74.0,30.20,South,191,0.0,1.0,82,0.00,,,0.00,,2013-07-18 13:43:00,
2013-07-18 08:53:00,83.0,73.0,30.21,South,191,0.0,2.0,73,0.00,,,0.00,,2013-07-18 13:53:00,
2013-07-18 09:02:00,83.0,73.0,30.21,South,191,0.0,2.0,73,0.00,,,0.00,,2013-07-18 14:02:00,
2013-07-18 09:12:00,83.0,73.0,30.21,South,191,0.0,2.0,73,0.00,,,0.00,,2013-07-18 14:12:00,
2013-07-18 09:22:00,85.0,74.0,30.20,South,191,0.0,2.0,70,0.00,,,0.00,,2013-07-18 14:22:00,
2013-07-18 09:33:00,85.0,74.0,30.20,South,191,0.0,2.0,70,0.00,,,0.00,,2013-07-18 14:33:00,
2013-07-18 09:43:00,85.0,74.0,30.20,South,191,0.0,2.0,70,0.00,,,0.00,,2013-07-18 14:43:00,
2013-07-18 09:53:00,86.0,75.0,30.20,South,191,0.0,4.0,69,0.00,,,0.00,,2013-07-18 14:53:00,
2013-07-18 10:01:00,86.0,75.0,30.20,South,191,0.0,4.0,69,0.00,,,0.00,,2013-07-18 15:01:00,
2013-07-18 10:11:00,86.0,75.0,30.20,South,191,0.0,4.0,69,0.00,,,0.00,,2013-07-18 15:11:00,
2013-07-18 10:22:00,87.0,75.0,30.19,South,191,2.0,4.0,67,0.00,,,0.00,,2013-07-18 15:22:00,
2013-07-18 10:32:00,87.0,75.0,30.19,South,191,2.0,4.0,67,0.00,,,0.00,,2013-07-18 15:32:00,
2013-07-18 10:43:00,87.0,75.0,30.19,South,191,2.0,4.0,67,0.00,,,0.00,,2013-07-18 15:43:00,
2013-07-18 10:53:00,88.0,75.0,30.19,South,191,4.0,7.0,65,0.00,,,0.00,,2013-07-18 15:53:00,
2013-07-18 11:01:00,88.0,75.0,30.19,South,191,4.0,7.0,65,0.00,,,0.00,,2013-07-18 16:01:00,
2013-07-18 11:11:00,88.0,75.0,30.19,South,191,4.0,7.0,65,0.00,,,0.00,,2013-07-18 16:11:00,
2013-07-18 11:22:00,88.0,74.0,30.19,South,191,0.0,4.0,64,0.00,,,0.00,,2013-07-18 16:22:00,
2013-07-18 11:32:00,88.0,74.0,30.19,South,191,0.0,4.0,64,0.00,,,0.00,,2013-07-18 16:32:00,
2013-07-18 11:42:00,88.0,74.0,30.19,South,191,0.0,4.0,64,0.00,,,0.00,,2013-07-18 16:42:00,
2013-07-18 11:52:00,90.0,74.0,30.18,SSE,149,2.0,6.0,60,0.00,,,0.00,,2013-07-18 16:52:00,
2013-07-18 12:02:00,90.0,74.0,30.18,SSE,149,2.0,6.0,60,0.00,,,0.00,,2013-07-18 17:02:00,
2013-07-18 12:11:00,90.0,74.0,30.18,SSE,149,2.0,6.0,60,0.00,,,0.00,,2013-07-18 17:11:00,
2013-07-18 12:22:00,91.0,74.0,30.18,SSE,156,3.0,6.0,58,0.00,,,0.00,,2013-07-18 17:22:00,
2013-07-18 12:33:00,91.0,74.0,30.18,SSE,156,3.0,6.0,58,0.00,,,0.00,,2013-07-18 17:33:00,
2013-07-18 12:43:00,91.0,74.0,30.18,SSE,156,3.0,6.0,58,0.00,,,0.00,,2013-07-18 17:43:00,
2013-07-18 12:52:00,91.0,75.0,30.16,South,191,2.0,6.0,60,0.00,,,0.00,,2013-07-18 17:52:00,
2013-07-18 13:01:00,91.0,75.0,30.16,South,191,2.0,6.0,60,0.00,,,0.00,,2013-07-18 18:01:00,
2013-07-18 13:11:00,91.0,75.0,30.16,South,191,2.0,6.0,60,0.00,,,0.00,,2013-07-18 18:11:00,
2013-07-18 13:22:00,91.0,74.0,30.16,South,185,1.0,5.0,57,0.00,,,0.00,,2013-07-18 18:22:00,
2013-07-18 13:32:00,91.0,74.0,30.16,South,185,1.0,5.0,57,0.00,,,0.00,,2013-07-18 18:32:00,
2013-07-18 13:43:00,91.0,74.0,30.16,South,185,1.0,5.0,57,0.00,,,0.00,,2013-07-18 18:43:00,
2013-07-18 13:52:00,93.0,75.0,30.14,SSW,203,3.0,7.0,56,0.00,,,0.00,,2013-07-18 18:52:00,
2013-07-18 14:02:00,93.0,75.0,30.14,SSW,203,3.0,7.0,56,0.00,,,0.00,,2013-07-18 19:02:00,
2013-07-18 14:11:00,93.0,75.0,30.14,SSW,203,3.0,7.0,56,0.00,,,0.00,,2013-07-18 19:11:00,
2013-07-18 14:22:00,93.0,74.0,30.12,South,189,3.0,6.0,55,0.00,,,0.00,,2013-07-18 19:22:00,
2013-07-18 14:32:00,93.0,74.0,30.12,South,189,3.0,6.0,55,0.00,,,0.00,,2013-07-18 19:32:00,
2013-07-18 14:43:00,93.0,74.0,30.12,South,189,3.0,6.0,55,0.00,,,0.00,,2013-07-18 19:43:00,
2013-07-18 14:53:00,92.0,73.0,30.11,SW,217,1.0,6.0,54,0.00,,,0.00,,2013-07-18 19:53:00,
2013-07-18 15:02:00,92.0,73.0,30.11,SW,217,1.0,6.0,54,0.00,,,0.00,,2013-07-18 20:02:00,
2013-07-18 15:11:00,92.0,73.0,30.11,SW,217,1.0,6.0,54,0.00,,,0.00,,2013-07-18 20:11:00,
2013-07-18 15:22:00,93.0,75.0,30.09,SE,125,0.0,6.0,56,0.00,,,0.00,,2013-07-18 20:22:00,
2013-07-18 15:32:00,93.0,75.0,30.09,SE,125,0.0,6.0,56,0.00,,,0.00,,2013-07-18 20:32:00,
2013-07-18 15:43:00,93.0,75.0,30.09,SE,125,0.0,6.0,56,0.00,,,0.00,,2013-07-18 20:43:00,
2013-07-18 15:52:00,94.0,74.0,30.09,SSE,154,1.0,5.0,53,0.00,,,0.00,,2013-07-18 20:52:00,
2013-07-18 16:01:00,94.0,74.0,30.09,SSE,154,1.0,5.0,53,0.00,,,0.00,,2013-07-18 21:01:00,
2013-07-18 16:11:00,94.0,74.0,30.09,SSE,154,1.0,5.0,53,0.00,,,0.00,,2013-07-18 21:11:00,
2013-07-18 16:22:00,93.0,74.0,30.07,SW,217,1.0,5.0,55,0.00,,,0.00,,2013-07-18 21:22:00,
2013-07-18 16:32:00,93.0,74.0,30.07,SW,217,1.0,5.0,55,0.00,,,0.00,,2013-07-18 21:32:00,
2013-07-18 16:43:00,93.0,74.0,30.07,SW,217,1.0,5.0,55,0.00,,,0.00,,2013-07-18 21:43:00,
2013-07-18 16:52:00,93.0,73.0,30.07,SSW,206,1.0,6.0,53,0.00,,,0.00,,2013-07-18 21:52:00,
2013-07-18 17:01:00,93.0,73.0,30.07,SSW,206,1.0,6.0,53,0.00,,,0.00,,2013-07-18 22:01:00,
2013-07-18 17:11:00,93.0,73.0,30.07,SSW,206,1.0,6.0,53,0.00,,,0.00,,2013-07-18 22:11:00,
2013-07-18 17:22:00,93.0,74.0,30.06,SSW,201,0.0,3.0,54,0.00,,,0.00,,2013-07-18 22:22:00,
2013-07-18 17:32:00,93.0,74.0,30.06,SSW,201,0.0,3.0,54,0.00,,,0.00,,2013-07-18 22:32:00,
2013-07-18 17:43:00,93.0,74.0,30.06,SSW,201,0.0,3.0,54,0.00,,,0.00,,2013-07-18 22:43:00,
2013-07-18 17:53:00,92.0,73.0,30.06,SSW,212,2.0,4.0,54,0.00,,,0.00,,2013-07-18 22:53:00,
2013-07-18 18:02:00,92.0,73.0,30.06,SSW,212,2.0,4.0,54,0.00,,,0.00,,2013-07-18 23:02:00,
2013-07-18 18:11:00,92.0,73.0,30.06,SSW,212,2.0,4.0,54,0.00,,,0.00,,2013-07-18 23:11:00,
2013-07-18 18:22:00,90.0,74.0,30.05,SSW,212,0.0,3.0,59,0.00,,,0.00,,2013-07-18 23:22:00,
2013-07-18 18:32:00,90.0,74.0,30.05,SSW,212,0.0,3.0,59,0.00,,,0.00,,2013-07-18 23:32:00,
2013-07-18 18:42:00,90.0,74.0,30.05,SSW,212,0.0,3.0,59,0.00,,,0.00,,2013-07-18 23:42:00,
2013-07-18 18:52:00,91.0,74.0,30.04,SSW,212,0.0,3.0,57,0.00,,,0.00,,2013-07-18 23:52:00,
2013-07-18 19:01:00,91.0,74.0,30.04,SSW,212,0.0,3.0,57,0.00,,,0.00,,2013-07-19 00:01:00,
2013-07-18 19:11:00,91.0,74.0,30.04,SSW,212,0.0,3.0,57,0.00,,,0.00,,2013-07-19 00:11:00,
2013-07-18 19:22:00,90.0,75.0,30.04,SSW,212,0.0,3.0,62,0.00,,,0.00,,2013-07-19 00:22:00,
2013-07-18 19:32:00,90.0,75.0,30.04,SSW,212,0.0,3.0,62,0.00,,,0.00,,2013-07-19 00:32:00,
2013-07-18 19:43:00,90.0,75.0,30.04,SSW,212,0.0,3.0,62,0.00,,,0.00,,2013-07-19 00:43:00,
2013-07-18 19:52:00,88.0,75.0,30.05,SSW,212,1.0,3.0,65,0.00,,,0.00,,2013-07-19 00:52:00,
2013-07-18 20:01:00,88.0,75.0,30.05,SSW,212,1.0,3.0,65,0.00,,,0.00,,2013-07-19 01:01:00,
2013-07-18 20:11:00,88.0,75.0,30.05,SSW,212,1.0,3.0,65,0.00,,,0.00,,2013-07-19 01:11:00,
2013-07-18 20:22:00,88.0,75.0,30.05,SSW,212,1.0,3.0,65,0.00,,,0.00,,2013-07-19 01:22:00,
2013-07-18 20:32:00,88.0,75.0,30.05,SSW,212,1.0,3.0,65,0.00,,,0.00,,2013-07-19 01:32:00,
2013-07-18 20:52:00,86.0,74.0,30.05,SSW,212,0.0,1.0,68,0.00,,,0.00,,2013-07-19 01:52:00,
2013-07-18 21:02:00,86.0,74.0,30.05,SSW,212,0.0,1.0,68,0.00,,,0.00,,2013-07-19 02:02:00,
2013-07-18 21:11:00,86.0,74.0,30.05,SSW,212,0.0,1.0,68,0.00,,,0.00,,2013-07-19 02:11:00,
2013-07-18 21:22:00,84.0,74.0,30.05,SSW,212,0.0,0.0,71,0.00,,,0.00,,2013-07-19 02:22:00,
2013-07-18 21:32:00,84.0,74.0,30.05,SSW,212,0.0,0.0,71,0.00,,,0.00,,2013-07-19 02:32:00,
2013-07-18 21:43:00,84.0,74.0,30.05,SSW,212,0.0,0.0,71,0.00,,,0.00,,2013-07-19 02:43:00,
2013-07-18 21:52:00,83.0,75.0,30.06,SSW,212,0.0,0.0,77,0.00,,,0.00,,2013-07-19 02:52:00,
2013-07-18 22:01:00,83.0,75.0,30.06,SSW,212,0.0,0.0,77,0.00,,,0.00,,2013-07-19 03:01:00,
2013-07-18 22:11:00,83.0,75.0,30.06,SSW,212,0.0,0.0,77,0.00,,,0.00,,2013-07-19 03:11:00,
2013-07-18 22:22:00,82.0,74.0,30.05,SSW,212,0.0,0.0,78,0.00,,,0.00,,2013-07-19 03:22:00,
2013-07-18 22:32:00,82.0,74.0,30.05,SSW,212,0.0,0.0,78,0.00,,,0.00,,2013-07-19 03:32:00,
2013-07-18 22:43:00,82.0,74.0,30.05,SSW,212,0.0,0.0,78,0.00,,,0.00,,2013-07-19 03:43:00,
2013-07-18 22:52:00,81.0,74.0,30.05,SSW,212,1.0,4.0,80,0.00,,,0.00,,2013-07-19 03:52:00,
2013-07-18 23:02:00,81.0,74.0,30.05,SSW,212,1.0,4.0,80,0.00,,,0.00,,2013-07-19 04:02:00,
2013-07-18 23:12:00,81.0,74.0,30.05,SSW,212,1.0,4.0,80,0.00,,,0.00,,2013-07-19 04:12:00,
2013-07-18 23:22:00,80.0,74.0,30.04,SSW,212,0.0,0.0,82,0.00,,,0.00,,2013-07-19 04:22:00,
2013-07-18 23:33:00,80.0,74.0,30.04,SSW,212,0.0,0.0,82,0.00,,,0.00,,2013-07-19 04:33:00,
2013-07-18 23:44:00,80.0,74.0,30.04,SSW,212,0.0,0.0,82,0.00,,,0.00,,2013-07-19 04:44:00,
2013-07-18 23:52:00,79.0,74.0,30.04,SSW,212,0.0,1.0,84,0.00,,,0.00,,2013-07-19 04:52:00,